Vertical_Velocity
0 1 1 -4 -1 -1 -0 -4 0 1 -2 3 -3 1 1 2 -2 0 1 1 2 -0 5 -0 -2 -0 -5 2 -3 10 -14 -19 -7 25 -1 7 -5 -3 0 1 2 -8 6 -0 -1
1 -2 -1 1 2 -2 -2 -1 -1 -0 1 3 -4 3 -0 -0 -2 5 -1 -1 1 3 3 4 6 -1 -6 -5 5 -2 -2 3 29 7 -2 1 -7 -9 -2 -0 -3 -2 -2 -4 2
-1 2 0 -3 -1 -1 -1 1 -2 -1 2 -1 -0 -0 3 -2 -3 1 2 -4 1 5 2 -5 5 1 0 -6 -6 1 -3 -1 4 11 2 6 -0 -5 -4 6 -3 2 -4 -1 0
-2 1 0 1 -1 -0 -1 -1 -1 4 -2 -3 2 0 -1 2 -3 1 2 -3 1 3 4 -1 3 4 -4 -3 0 9 1 -3 4 8 3 2 -14 -10 -8 6 3 -3 -10 -0 -0
-1 -0 -1 -1 -2 1 -2 1 -0 -1 -4 -0 0 2 -3 0 -2 2 -1 -0 -6 6 2 2 2 -4 -3 -5 -2 -9 -3 2 3 2 3 -0 -4 -14 -4 -4 -1 -2 -2 2 -2
-2 -1 -0 1 -2 -2 -0 -1 0 -3 -3 2 -1 1 -2 3 -2 -1 -2 -2 3 1 0 -2 0 4 -3 -5 -8 -1 2 2 3 0 -5 -1 -0 -2 -10 -7 -6 -1 -1 -2 -1
-2 0 -0 -2 -1 1 0 -1 1 -2 -2 -0 0 -1 -2 5 -0 2 -0 -3 2 -1 3 1 -3 -1 6 -4 -4 -4 0 4 -2 -6 -4 -2 2 6 3 -4 4 -3 1 0 1
-0 0 -1 -3 -1 -2 -1 -1 1 -4 1 0 -0 -1 -1 -3 2 1 -0 -2 -0 1 0 -2 0 1 -2 13 5 2 7 1 4 -3 2 -4 4 10 -2 3 -6 -6 -2 -2 -4
-1 -2 -2 -0 -1 -2 -1 -1 -2 -2 -0 1 2 -3 3 -3 -3 2 1 -2 -1 1 -0 0 -2 -0 4 1 -0 1 3 -2 -10 9 3 3 -9 -13 -13 -12 -1 -3 -7 -4 -4
0 0 -1 -1 -1 -2 -1 -0 -2 -3 -1 -1 -3 -2 -2 -3 0 -2 2 -3 -1 1 -1 2 -2 1 -3 8 -3 -10 -6 7 9 -4 -3 8 -3 -8 -8 -0 0 8 -5 -0 -3
-1 -0 1 -1 0 0 -0 -5 -4 -4 -1 -2 5 -2 3 3 -3 0 -0 0 -0 1 -0 1 -4 3 4 -4 -5 -6 1 2 7 9 -6 5 2 -11 5 -11 -2 3 5 -1 -0
-0 -1 -0 -1 -0 -1 -4 -7 3 4 0 -2 1 -3 3 0 -1 1 1 -3 2 0 -2 0 3 5 -6 -6 -5 3 -1 4 -1 -5 -2 -3 3 1 -8 -2 -2 -3 -1 -2 1
-0 -1 -2 -1 -1 3 -1 -5 -3 -6 -3 -6 1 -2 3 -1 -2 -1 2 -1 1 0 2 -2 -2 -1 -0 2 -2 -2 -1 4 1 -6 -10 -1 4 3 11 10 -7 -7 -0 3 1
-0 0 -1 1 1 -6 -7 4 -4 -3 -7 9 -4 3 -5 3 -2 0 -2 -2 1 4 -1 -1 -3 -3 1 -1 -2 2 -2 -3 -4 -6 1 1 -10 -6 20 9 4 -14 -3 0 9
1 0 -0 1 -1 -3 13 3 -5 1 -16 22 -2 5 -5 -3 -4 2 -0 -6 -0 5 -4 5 0 -1 -2 -0 -1 5 -5 -7 2 -3 1 12 -4 -2 5 5 -14 -2 -1 -4 -5
1 0 1 -1 -4 2 1 -3 -2 -6 -5 -9 1 2 -4 9 -6 2 -1 -5 0 -3 -4 3 -8 -5 -0 -1 -2 1 -4 1 -1 6 3 -4 0 3 -15 -6 5 -6 8 -27 11
0 1 -0 -2 -1 2 0 -1 -4 -10 6 4 -6 1 0 6 -5 -8 1 2 2 1 1 7 -3 2 1 2 -2 -0 -2 -0 -2 3 -2 5 -7 -49 -21 -27 1 -9 -0 3 -1
-1 0 1 -3 2 -2 -3 -4 -4 9 7 1 7 -1 -3 -1 5 1 -4 0 -2 -3 2 0 2 -0 8 1 -0 1 -2 -1 -7 2 -8 1 0 19 3 4 14 4 3 -1 -8
-1 -0 -0 -1 -0 0 1 -6 4 10 14 2 6 5 -5 2 1 1 -5 1 3 0 0 -2 -6 1 -3 6 -1 3 -6 7 -10 3 6 -5 0 10 5 -8 -11 4 -24 17 9
-0 1 -0 1 -1 0 -3 -0 4 8 6 6 6 6 1 -2 -1 -2 -0 8 2 -1 4 5 -9 -4 2 -3 3 -1 6 -3 -1 -4 -0 -1 17 12 3 -3 12 19 22 -5 6
1 1 5 -3 -0 -3 -1 3 2 23 -6 -7 2 -3 -4 -5 13 7 -2 4 3 2 -1 12 -0 4 40 2 5 -3 4 -4 6 -4 -4 -0 3 8 7 27 -1 -1 -7 -2 -4
2 1 -1 1 -3 -1 1 4 8 -5 -10 -10 6 5 -3 3 0 5 2 0 2 3 -9 4 -4 -1 0 16 5 -2 1 -2 -7 6 5 3 -6 -18 16 14 -15 -15 -28 -5 2
0 6 5 2 3 5 5 4 -1 -0 3 5 -3 9 6 1 -4 6 16 4 -5 4 5 9 -12 7 4 1 3 -1 -0 2 5 -1 -3 7 6 -10 23 12 13 2 4 1 45
6 0 -6 -2 -8 -2 -2 -1 -3 4 -2 -5 -5 5 -1 -6 8 -4 7 -1 6 1 -2 2 -8 -3 2 5 -5 1 -0 2 -7 -11 -1 -2 9 7 16 28 13 -19 -11 -12 -5
-6 -17 2 -8 -5 -4 -2 12 2 4 -1 0 5 -6 -14 -3 1 11 -1 -8 2 4 1 7 -1 0 -6 -3 -7 -9 -7 -6 -5 -4 -2 5 -2 -12 -17 12 2 4 33 7 31
2 5 12 5 3 4 -1 4 3 3 -6 4 4 7 -5 7 5 9 17 -4 1 -12 -11 -3 -0 1 -7 7 9 2 3 0 -5 -9 -8 2 10 13 -11 -28 2 14 -14 12 6
-6 1 -5 -0 8 8 6 -2 3 4 -2 8 -4 -2 4 3 -3 -10 -16 -11 -5 -10 -2 3 -6 -3 -6 7 3 -5 0 -7 -1 2 8 4 5 -5 -10 -6 -2 -6 -26 -10 -8
Height
5888 5891 5893 5894 5896 5898 5899 5901 5902 5904 5907 5910 5912 5914 5917 5919 5919 5921 5924 5925 5927 5927 5929 5929 5930 5934 5934 5934 5933 5937 5930 5932 5929 5941 5942 5940 5935 5936 5937 5935 5933 5928 5928 5923 5919
5886 5888 5890 5892 5894 5897 5897 5900 5901 5903 5906 5909 5912 5914 5916 5919 5920 5921 5924 5925 5927 5929 5931 5933 5932 5931 5933 5934 5936 5938 5937 5934 5938 5945 5944 5941 5937 5936 5938 5937 5933 5928 5926 5924 5922
5883 5886 5888 5890 5893 5895 5896 5897 5900 5903 5905 5908 5911 5914 5915 5919 5920 5922 5923 5925 5927 5929 5931 5932 5936 5934 5935 5936 5937 5942 5941 5941 5944 5946 5943 5942 5938 5935 5938 5938 5934 5930 5927 5926 5925
5880 5882 5885 5888 5890 5893 5894 5897 5899 5901 5904 5906 5909 5913 5916 5918 5922 5922 5923 5925 5927 5928 5930 5932 5935 5935 5935 5936 5940 5942 5942 5940 5942 5943 5942 5942 5936 5933 5934 5937 5935 5932 5928 5926 5924
5876 5879 5882 5885 5888 5890 5892 5895 5897 5900 5902 5905 5908 5911 5915 5919 5921 5922 5923 5926 5926 5928 5930 5932 5933 5934 5933 5934 5940 5940 5940 5941 5942 5942 5942 5942 5941 5936 5935 5934 5933 5931 5927 5927 5923
5874 5876 5879 5882 5886 5888 5890 5892 5895 5898 5900 5903 5907 5909 5914 5918 5920 5922 5923 5925 5925 5928 5930 5930 5933 5934 5934 5934 5936 5937 5939 5941 5942 5942 5942 5944 5941 5938 5935 5932 5932 5932 5930 5928 5925
5870 5873 5876 5879 5883 5885 5888 5890 5893 5895 5898 5901 5905 5908 5912 5917 5917 5920 5922 5924 5925 5927 5929 5931 5932 5934 5935 5935 5936 5939 5941 5942 5942 5941 5942 5944 5942 5941 5939 5934 5934 5932 5931 5928 5926
5865 5869 5873 5876 5879 5882 5885 5888 5890 5893 5895 5899 5902 5906 5910 5912 5916 5918 5920 5922 5924 5926 5928 5929 5931 5934 5935 5938 5938 5940 5942 5941 5942 5941 5942 5944 5944 5943 5940 5937 5933 5931 5929 5927 5924
5861 5865 5868 5872 5875 5879 5882 5885 5887 5890 5893 5896 5899 5903 5908 5910 5914 5916 5919 5920 5922 5924 5926 5928 5930 5932 5935 5936 5937 5938 5941 5942 5942 5943 5943 5942 5940 5938 5936 5935 5933 5930 5927 5926 5924
5855 5860 5864 5867 5871 5875 5878 5881 5884 5886 5890 5893 5896 5901 5904 5907 5912 5913 5915 5918 5920 5922 5925 5927 5929 5930 5933 5935 5934 5934 5937 5942 5941 5942 5940 5942 5938 5934 5934 5933 5934 5933 5928 5927 5925
5849 5854 5858 5862 5866 5870 5874 5877 5880 5884 5888 5890 5895 5897 5901 5904 5908 5911 5913 5915 5918 5920 5922 5924 5927 5929 5932 5931 5931 5933 5937 5939 5939 5940 5940 5941 5939 5935 5936 5933 5931 5932 5930 5927 5925
5842 5847 5852 5856 5860 5864 5868 5871 5876 5881 5884 5886 5890 5893 5897 5901 5905 5907 5910 5914 5915 5918 5920 5923 5925 5927 5926 5928 5929 5934 5935 5937 5937 5937 5938 5938 5938 5937 5934 5931 5930 5929 5929 5928 5925
5834 5840 5845 5849 5854 5859 5863 5866 5871 5874 5879 5883 5887 5890 5894 5898 5901 5904 5907 5909 5912 5915 5918 5919 5921 5922 5925 5927 5929 5930 5933 5936 5937 5936 5934 5935 5936 5936 5935 5931 5929 5928 5928 5928 5925
5826 5831 5837 5842 5849 5851 5854 5862 5865 5870 5874 5881 5883 5888 5891 5895 5898 5901 5904 5906 5909 5913 5915 5916 5918 5919 5922 5924 5926 5928 5930 5930 5931 5932 5934 5933 5931 5932 5934 5930 5928 5925 5926 5924 5925
5820 5824 5829 5835 5840 5845 5854 5858 5860 5866 5870 5879 5879 5883 5887 5891 5894 5895 5899 5902 5906 5909 5911 5915 5916 5916 5919 5922 5923 5927 5925 5926 5929 5930 5931 5932 5929 5928 5928 5926 5923 5924 5919 5922 5920
5815 5818 5822 5827 5831 5838 5845 5849 5854 5861 5864 5870 5872 5878 5882 5887 5888 5891 5895 5898 5902 5904 5905 5910 5911 5912 5915 5918 5920 5922 5922 5925 5926 5927 5927 5925 5928 5925 5921 5920 5920 5918 5921 5912 5915
5810 5813 5817 5819 5824 5832 5838 5843 5849 5850 5864 5866 5867 5873 5876 5881 5883 5886 5890 5895 5898 5900 5903 5906 5907 5911 5912 5915 5917 5919 5920 5922 5923 5923 5923 5924 5924 5917 5916 5915 5916 5917 5913 5915 5914
5805 5808 5811 5812 5816 5821 5827 5834 5838 5851 5859 5863 5866 5868 5872 5876 5879 5882 5884 5889 5892 5896 5899 5901 5905 5908 5911 5912 5914 5915 5917 5919 5919 5920 5919 5919 5920 5921 5916 5912 5913 5915 5913 5912 5912
5799 5802 5805 5807 5808 5812 5818 5822 5834 5850 5855 5857 5858 5864 5866 5871 5875 5878 5879 5885 5888 5891 5895 5898 5901 5903 5906 5910 5910 5912 5913 5915 5915 5916 5916 5918 5915 5917 5913 5907 5912 5915 5910 5911 5910
5793 5796 5800 5803 5804 5807 5812 5821 5833 5842 5842 5848 5855 5861 5864 5867 5871 5873 5876 5881 5884 5887 5892 5895 5895 5899 5902 5904 5908 5909 5911 5911 5912 5912 5913 5914 5913 5910 5907 5908 5909 5910 5911 5908 5907
5787 5791 5794 5797 5801 5804 5810 5819 5826 5828 5833 5841 5846 5848 5857 5861 5868 5870 5873 5877 5880 5883 5888 5892 5894 5898 5900 5901 5904 5905 5907 5908 5909 5910 5908 5910 5909 5907 5904 5904 5897 5900 5903 5909 5905
5780 5784 5786 5791 5797 5802 5808 5814 5819 5819 5824 5830 5840 5846 5850 5855 5858 5864 5871 5874 5876 5879 5882 5887 5889 5892 5893 5899 5899 5901 5902 5903 5903 5905 5905 5905 5903 5902 5900 5892 5893 5892 5887 5899 5900
5772 5778 5782 5787 5793 5799 5805 5809 5813 5817 5822 5828 5834 5841 5846 5847 5855 5862 5866 5868 5872 5875 5877 5881 5882 5887 5890 5893 5896 5896 5899 5900 5900 5898 5898 5900 5900 5897 5897 5887 5887 5882 5890 5890 5894
5765 5771 5774 5778 5785 5790 5796 5801 5807 5812 5815 5820 5828 5833 5837 5843 5850 5854 5856 5860 5865 5868 5871 5874 5877 5881 5886 5890 5890 5892 5893 5893 5893 5892 5893 5893 5894 5894 5893 5892 5887 5876 5878 5887 5889
5756 5759 5765 5769 5774 5782 5789 5799 5803 5806 5809 5813 5821 5825 5832 5841 5846 5849 5850 5853 5856 5861 5866 5871 5874 5876 5879 5882 5883 5885 5887 5888 5890 5890 5887 5889 5887 5889 5887 5886 5885 5887 5888 5883 5884
5752 5755 5764 5769 5773 5778 5780 5787 5795 5799 5800 5807 5815 5822 5825 5832 5840 5840 5841 5842 5850 5855 5860 5863 5866 5870 5874 5878 5881 5882 5882 5883 5884 5885 5885 5882 5882 5880 5878 5879 5879 5879 5881 5883 5881
5743 5747 5753 5757 5765 5773 5777 5780 5786 5791 5795 5802 5809 5812 5816 5818 5823 5827 5834 5841 5845 5848 5855 5859 5860 5865 5869 5873 5874 5875 5878 5878 5877 5878 5879 5878 5875 5869 5871 5871 5870 5869 5880 5877 5877